7 * 24
多渠道服务支持
HEAD-3A是中国发射的一颗卫星,于北京时间2023年8月14日8时成功送入预定轨道。作为中国航天领域的一次发射任务,该卫星由中方主导研制,其入轨后将服务于相关空间技术验证与应用拓展,进一步充实中国在轨卫星星座布局,助力提升中国在相关航天应用领域的探索能力,推动航天技术持续发展。
中国
(CN)
| 数据来源 | 国际轨道数据 |
| 星历时间: | 2026-06-17T13:05:27+0800 7小时前 查看轨道信息 |
| 半长轴: | 7069.108km |
| 偏心率: | 0.000734 |
| 轨道倾角: | 45.003° |
| 近地点辐角 | 274.074° |
| 升交点赤经 | 311.588° |
| 平近点角 | 85.928° |
| 近地点: | 685.782km |
| 远地点: | 696.16km |
| 周期: | 98.584分钟 |
| 每日圈数: | 14.606828 |